Weather History for KGSP - March, 2013

Change the Weather History Date:

Sunday, March 31, 2013

  Actual Average Record
Temperature  
Mean Temperature 61 °F 57 °F  
Max Temperature 71 °F 69 °F 86 °F (1986)
Min Temperature 50 °F 45 °F 24 °F (1964)
Degree Days  
Heating Degree Days 4 9  
Month to date heating degree days 554 384  
Since 1 July heating degree days 2740 2833  
Cooling Degree Days 0 0  
Month to date cooling degree days 2 8  
Year to date cooling degree days 2 8  
Growing Degree Days 10 (Base 50)    
Moisture  
Dew Point 51 °F    
Average Humidity 77    
Maximum Humidity 100    
Minimum Humidity 53    
Precipitation  
Precipitation 0.49 in 0.14 in 2.27 in (1962)
Month to date precipitation 3.52 4.52  
Year to date precipitation 12.67 12.31  
Snow  
Snow 0.00 in 0.00 in 1.00 in (1915)
Month to date snowfall T 0.9  
Since 1 July snowfall 2.0 4.7  
Snow Depth 0.00 in    
Sea Level Pressure  
Sea Level Pressure 29.91 in    
Wind  
Wind Speed 9 mph (SW)    
Max Wind Speed 24 mph    
Max Gust Speed 30 mph    
Visibility 7 miles    
Events Rain    
T = Trace of Precipitation, MM = Missing Value Source: NWS Daily Summary

Daily Weather History Graph

Daily Weather History Graph

Search for Another Location

Airport or City:

Trip Planner

Search our weather history database for the weather conditions in past years. The results will help you decide how hot, cold, wet, or windy it might be!

Date:

Astronomy

Mar. 31, 2013 Rise Set
Actual Time 7:16 AM EDT 7:49 PM EDT
Civil Twilight 6:51 AM EDT 8:15 PM EDT
Nautical Twilight 6:21 AM EDT 8:44 PM EDT
Astronomical Twilight 5:51 AM EDT 9:15 PM EDT
Moon No Moon Rise 10:13 AM EDT (3/31)
Length of Visible Light 13h 23m
Length of Day
12h 32m
Waning Gibbous, 78% of the Moon is Illuminated
Mar 31
Waning Gibbous
Apr 3
Last Quarter
Apr 10
New
Apr 18
First Quarter
Apr 25
Full

Hourly Weather History & Observations

Time (EDT) Temp. Dew Point Humidity Pressure Visibility Wind Dir Wind Speed Gust Speed Precip Events Conditions
12:53 AM 52.0 °F 48.0 °F 86% 30.04 in 10.0 mi Calm Calm - 0.01 in Rain Light Rain
1:53 AM 51.1 °F 48.9 °F 92% 30.00 in 6.0 mi NNE 3.5 mph - 0.09 in Rain Rain
2:53 AM 50.0 °F 48.9 °F 96% 29.98 in 4.0 mi NNW 3.5 mph - 0.16 in Rain Heavy Rain
3:14 AM 50.0 °F 48.2 °F 94% 29.98 in 5.0 mi Calm Calm - 0.06 in Rain Rain
3:30 AM 50.0 °F 48.2 °F 94% 29.96 in 3.0 mi East 5.8 mph - 0.08 in Rain Light Rain
3:53 AM 50.0 °F 48.9 °F 96% 29.94 in 5.0 mi NNW 4.6 mph - 0.09 in Rain Light Rain
4:03 AM 50.0 °F 48.2 °F 94% 29.94 in 4.0 mi East 3.5 mph - 0.01 in Rain Light Rain
4:11 AM 50.0 °F 48.2 °F 94% 29.94 in 4.0 mi Calm Calm - 0.02 in Rain Light Rain
4:19 AM 50.0 °F 48.2 °F 94% 29.94 in 5.0 mi ESE 5.8 mph - 0.02 in Rain Light Rain
4:32 AM 50.0 °F 48.2 °F 94% 29.96 in 5.0 mi WNW 8.1 mph - 0.02 in Rain Rain
4:45 AM 50.0 °F 50.0 °F 100% 29.95 in 3.0 mi Calm Calm - 0.05 in Rain Rain
4:53 AM 50.0 °F 48.9 °F 96% 29.93 in 3.0 mi Calm Calm - 0.07 in Rain Light Rain
4:56 AM 50.0 °F 48.2 °F 94% 29.94 in 2.5 mi Calm Calm - 0.00 in Rain Light Rain
5:07 AM 50.0 °F 50.0 °F 100% 29.94 in 3.0 mi Calm Calm - 0.03 in Rain Rain
5:14 AM 50.0 °F 50.0 °F 100% 29.94 in 3.0 mi SE 3.5 mph - 0.03 in Rain Light Rain
5:53 AM 50.0 °F 48.9 °F 96% 29.93 in 4.0 mi SSE 3.5 mph - 0.08 in Rain Light Rain
6:49 AM 50.0 °F 50.0 °F 100% 29.92 in 3.0 mi Calm Calm - 0.01 in   Overcast
6:53 AM 50.0 °F 50.0 °F 100% 29.91 in 2.0 mi Calm Calm - 0.01 in   Overcast
7:00 AM 50.0 °F 50.0 °F 100% 29.92 in 2.5 mi SSE 3.5 mph - N/A   Overcast
7:10 AM 50.0 °F 50.0 °F 100% 29.92 in 3.0 mi Calm Calm - N/A   Overcast
7:34 AM 50.0 °F 50.0 °F 100% 29.92 in 2.5 mi Calm Calm - N/A   Overcast
7:53 AM 51.1 °F 50.0 °F 96% 29.91 in 4.0 mi Calm Calm - N/A   Overcast
8:53 AM 54.0 °F 53.1 °F 97% 29.90 in 4.0 mi SSW 10.4 mph - N/A   Overcast
9:53 AM 57.0 °F 55.0 °F 93% 29.91 in 7.0 mi SW 6.9 mph - N/A   Overcast
10:17 AM 57.2 °F 55.4 °F 94% 29.92 in 10.0 mi WSW 9.2 mph - N/A   Overcast
10:53 AM 59.0 °F 55.9 °F 90% 29.91 in 10.0 mi WSW 16.1 mph 20.7 mph N/A   Overcast
11:09 AM 60.8 °F 55.4 °F 82% 29.92 in 10.0 mi WSW 12.7 mph - N/A   Overcast
11:50 AM 66.2 °F 55.4 °F 68% 29.91 in 10.0 mi West 8.1 mph - N/A   Scattered Clouds
11:53 AM 66.0 °F 55.0 °F 68% 29.89 in 10.0 mi WSW 15.0 mph - N/A   Scattered Clouds
12:53 PM 69.1 °F 53.1 °F 57% 29.87 in 10.0 mi WSW 18.4 mph 23.0 mph N/A   Mostly Cloudy
1:53 PM 70.0 °F 52.0 °F 53% 29.86 in 10.0 mi WSW 19.6 mph 24.2 mph N/A   Scattered Clouds
2:53 PM 68.0 °F 52.0 °F 56% 29.85 in 10.0 mi SSW 17.3 mph 27.6 mph N/A   Partly Cloudy
3:53 PM 70.0 °F 51.1 °F 51% 29.84 in 10.0 mi SSW 15.0 mph 27.6 mph N/A   Partly Cloudy
4:53 PM 64.9 °F 50.0 °F 58% 29.85 in 10.0 mi SW 9.2 mph 20.7 mph N/A   Overcast
5:53 PM 64.9 °F 54.0 °F 68% 29.83 in 10.0 mi SW 11.5 mph 19.6 mph 0.00 in   Mostly Cloudy
6:53 PM 64.0 °F 54.0 °F 70% 29.85 in 10.0 mi SW 13.8 mph 20.7 mph N/A   Overcast
7:53 PM 61.0 °F 54.0 °F 78% 29.84 in 10.0 mi WSW 10.4 mph - N/A   Clear
8:53 PM 59.0 °F 53.1 °F 81% 29.84 in 10.0 mi SW 4.6 mph - N/A   Clear
9:53 PM 59.0 °F 54.0 °F 83% 29.85 in 10.0 mi SSW 8.1 mph - N/A   Overcast
10:53 PM 59.0 °F 55.0 °F 87% 29.84 in 10.0 mi SW 4.6 mph - N/A   Overcast
11:53 PM 57.9 °F 55.0 °F 90% 29.83 in 10.0 mi SW 8.1 mph - 0.00 in   Overcast